TimeEST,TemperatureF,Dew PointF,Humidity,Sea Level PressureIn,VisibilityMPH,Wind Direction,Wind SpeedMPH,Gust SpeedMPH,PrecipitationIn,Events,Conditions,WindDirDegrees,DateUTC
12:54 AM,45.0,37.9,76,30.06,10.0,North,8.1,-,0.00,Rain,Light Rain,10,2014-02-03 05:54:00
1:54 AM,43.0,37.9,82,30.08,7.0,North,4.6,-,0.02,Rain,Light Rain,10,2014-02-03 06:54:00
2:46 AM,42.8,39.2,87,30.09,4.0,North,6.9,-,0.05,Rain,Light Rain,360,2014-02-03 07:46:00
2:54 AM,41.0,39.0,93,30.10,4.0,North,4.6,-,0.06,Rain,Light Rain,10,2014-02-03 07:54:00
3:54 AM,39.9,37.9,93,30.05,4.0,NE,11.5,-,0.08,Rain,Rain,40,2014-02-03 08:54:00
4:28 AM,39.2,37.4,93,30.08,1.5,NNE,8.1,-,0.05,Rain,Rain,20,2014-02-03 09:28:00
4:54 AM,39.0,37.0,93,30.06,3.0,NNE,10.4,-,0.13,Rain,Rain,30,2014-02-03 09:54:00
5:54 AM,39.0,37.0,93,30.06,3.0,NE,9.2,-,0.14,Rain,Rain,40,2014-02-03 10:54:00
6:02 AM,37.4,35.6,93,30.06,3.0,NE,10.4,18.4,0.02,Rain,Light Rain,40,2014-02-03 11:02:00
6:54 AM,37.0,35.1,93,30.06,4.0,ENE,11.5,-,0.19,Rain,Rain,60,2014-02-03 11:54:00
7:16 AM,37.4,35.6,93,30.04,2.5,ENE,16.1,-,0.07,Rain,Rain,60,2014-02-03 12:16:00
7:54 AM,37.0,35.1,93,30.05,2.5,NE,11.5,-,0.17,Rain,Rain,50,2014-02-03 12:54:00
8:54 AM,36.0,35.1,97,30.05,2.5,NE,13.8,-,0.21,Rain,Rain,40,2014-02-03 13:54:00
9:30 AM,35.6,33.8,93,30.08,3.0,North,9.2,-,0.10,Rain,Rain,360,2014-02-03 14:30:00
9:54 AM,36.0,34.0,93,30.07,5.0,NNE,8.1,-,0.16,Rain,Light Rain,30,2014-02-03 14:54:00
10:54 AM,36.0,34.0,93,30.05,6.0,NE,13.8,-,0.06,Rain,Light Rain,40,2014-02-03 15:54:00
11:54 AM,36.0,33.1,89,30.07,6.0,North,10.4,18.4,0.04,Rain,Light Rain,350,2014-02-03 16:54:00
11:56 AM,35.6,33.8,93,30.06,6.0,North,10.4,-,0.00,Rain-Snow,Light Rain,360,2014-02-03 16:56:00
12:01 PM,35.6,33.8,93,30.05,2.5,North,10.4,-,0.00,Snow,Ice Pellets,360,2014-02-03 17:01:00
12:11 PM,33.8,32.0,93,30.05,5.0,North,9.2,-,0.02,Snow,Light Ice Pellets,360,2014-02-03 17:11:00
12:14 PM,33.8,32.0,93,30.05,6.0,North,9.2,-,0.02,Rain,Light Ice Pellets,360,2014-02-03 17:14:00
12:27 PM,33.8,32.0,93,30.06,2.5,North,9.2,-,0.02,Rain,Light Rain,350,2014-02-03 17:27:00
12:32 PM,33.8,32.0,93,30.06,2.5,North,10.4,20.7,0.02,Rain-Snow,Light Snow,360,2014-02-03 17:32:00
12:54 PM,34.0,32.0,92,30.07,2.5,North,9.2,-,0.04,Rain-Snow,Light Snow,350,2014-02-03 17:54:00
1:00 PM,33.8,32.0,93,30.07,2.5,North,8.1,-,0.01,Snow,Light Ice Pellets,360,2014-02-03 18:00:00
1:12 PM,33.8,32.0,93,30.07,2.0,North,8.1,-,0.02,Snow,Light Snow,350,2014-02-03 18:12:00
1:33 PM,33.8,32.0,93,30.07,2.5,North,5.8,-,0.03,Rain,Light Rain,350,2014-02-03 18:33:00
1:51 PM,33.8,32.0,93,30.07,3.0,North,9.2,-,0.03,Rain,Light Rain,360,2014-02-03 18:51:00
1:54 PM,34.0,32.0,92,30.08,3.0,North,8.1,-,0.03,Rain,Light Rain,360,2014-02-03 18:54:00
2:18 PM,35.6,32.0,87,30.08,3.0,North,8.1,-,0.00,Snow,Light Snow,360,2014-02-03 19:18:00
2:54 PM,36.0,33.1,89,30.10,6.0,North,6.9,-,0.01,Rain-Snow,Light Rain,350,2014-02-03 19:54:00
3:14 PM,35.6,33.8,93,30.11,10.0,North,10.4,-,0.00,,Overcast,360,2014-02-03 20:14:00
3:54 PM,36.0,32.0,86,30.15,10.0,North,11.5,17.3,0.00,,Overcast,350,2014-02-03 20:54:00
4:11 PM,35.6,32.0,87,30.15,10.0,NNW,5.8,-,N/A,,Overcast,340,2014-02-03 21:11:00
4:54 PM,36.0,30.9,82,30.18,10.0,NNW,10.4,-,N/A,,Overcast,340,2014-02-03 21:54:00
5:54 PM,36.0,30.9,82,30.22,10.0,NNW,6.9,-,N/A,,Overcast,340,2014-02-03 22:54:00
6:54 PM,35.1,30.0,82,30.25,10.0,North,5.8,-,N/A,,Mostly Cloudy,360,2014-02-03 23:54:00
7:54 PM,34.0,30.0,85,30.27,10.0,NNW,3.5,-,N/A,,Mostly Cloudy,340,2014-02-04 00:54:00
8:54 PM,34.0,28.9,82,30.31,10.0,NNW,4.6,-,N/A,,Overcast,330,2014-02-04 01:54:00
9:54 PM,33.1,27.0,78,30.32,10.0,North,5.8,-,N/A,,Mostly Cloudy,360,2014-02-04 02:54:00
10:54 PM,30.9,25.0,79,30.34,10.0,NNE,3.5,-,N/A,,Scattered Clouds,20,2014-02-04 03:54:00
11:54 PM,30.9,24.1,76,30.34,10.0,North,5.8,-,N/A,,Scattered Clouds,360,2014-02-04 04:54:00